ポンス-ガンバール彗星

273P/Pons-Gambart (2012)

English version
Home page
Updated on June 11, 2016

---------------------------------------------------------------------

・ プロフィール

符号 273P/2012 V4
再発見日 2012年11月7日
再発見光度
再発見者 Rob Matson (SWAN/SOHO spacecraft images)

・ 写真集

・ 軌道要素

Epoch 2012 Dec. 19.0 TT = JDT 2456280.5
T 2012 Dec. 19.67099 TT                                 MPC
q   0.8101824            (2000.0)            P               Q
n   0.00524011     Peri.   20.19162     +0.56424529     -0.69900374
a  32.8278357      Node   320.42916     -0.82000022     -0.53638939
e   0.9753203      Incl.  136.39602     -0.09605666     +0.47294841
P 188
From 277 observations 1827 June 21-2013 Feb. 21.

・ 星図

・ 光度変化

        m1 =  9.0 + 5 logΔ + 20.0 log r(t - 10)  [   , 98]  (              〜2013年 3月27日)
        m1 = 11.0 + 5 logΔ + 10.0 log r          [ 98,192]  (2013年 3月27日〜2013年 6月29日)
        H = 12.5  G = 0.15                        [192,   ]  (2013年 6月29日〜              )

---------------------------------------------------------------------

軌道要素はM.P.E.C. 2013-D50に掲載されたものです。
星図はステラナビゲータ Ver.8 (アストロアーツ) で作成したものです。
光度グラフはComet for Windowsで作成したものです。

---------------------------------------------------------------------

Copyright(C) Seiichi Yoshida (comet@aerith.net). All rights reserved.